QPF
0.02 0.03 0.03 0.02 0.01 0.00 0.00 0.00 0.00 0.00 0.00 0.00 0.00 0.00 0.00 0.00 0.00 0.00 0.00 0.01 0.01 0.01 0.02 0.02 0.02 0.04 0.05 0.07 0.07 0.05 0.05 0.06 0.06 0.07 0.06 0.06 0.07 0.09 0.10 0.09 0.05 0.06 0.08
0.00 0.01 0.02 0.02 0.01 0.00 0.00 0.00 0.00 0.00 0.00 0.00 0.00 0.00 0.00 0.00 0.00 0.00 0.00 0.01 0.01 0.01 0.02 0.02 0.03 0.03 0.03 0.05 0.06 0.06 0.05 0.07 0.08 0.08 0.08 0.07 0.09 0.11 0.10 0.03 0.03 0.04 0.07
0.00 0.00 0.01 0.01 0.01 0.01 0.00 0.00 0.00 0.00 0.00 0.00 0.00 0.00 0.00 0.01 0.01 0.01 0.01 0.01 0.02 0.01 0.02 0.02 0.02 0.03 0.02 0.04 0.04 0.05 0.05 0.08 0.08 0.07 0.05 0.03 0.08 0.13 0.07 0.04 0.05 0.06 0.07
0.00 0.00 0.00 0.01 0.01 0.00 0.00 0.00 0.00 0.00 0.00 0.00 0.00 0.00 0.01 0.01 0.01 0.01 0.01 0.01 0.02 0.02 0.02 0.02 0.02 0.02 0.02 0.03 0.03 0.04 0.06 0.08 0.08 0.04 0.01 0.01 0.04 0.09 0.07 0.06 0.06 0.07 0.06
0.00 0.00 0.00 0.01 0.00 0.00 0.00 0.00 0.00 0.00 0.00 0.00 0.00 0.01 0.01 0.01 0.01 0.01 0.01 0.02 0.01 0.02 0.03 0.02 0.02 0.02 0.02 0.04 0.05 0.06 0.07 0.08 0.06 0.02 0.01 0.01 0.05 0.08 0.07 0.06 0.08 0.07 0.05
0.00 0.00 0.01 0.01 0.00 0.00 0.00 0.00 0.00 0.00 0.00 0.01 0.00 0.01 0.01 0.01 0.01 0.01 0.01 0.02 0.02 0.02 0.03 0.02 0.02 0.03 0.03 0.04 0.06 0.07 0.06 0.06 0.02 0.01 0.01 0.03 0.03 0.06 0.06 0.05 0.06 0.05 0.04
0.01 0.00 0.01 0.01 0.00 0.00 0.00 0.00 0.00 0.00 0.01 0.00 0.01 0.01 0.01 0.01 0.01 0.01 0.01 0.01 0.01 0.02 0.01 0.01 0.02 0.03 0.04 0.06 0.08 0.06 0.04 0.03 0.01 0.00 0.01 0.03 0.03 0.05 0.05 0.04 0.05 0.04 0.03
0.00 0.00 0.00 0.01 0.00 0.00 0.01 0.01 0.01 0.01 0.01 0.01 0.01 0.01 0.01 0.01 0.01 0.01 0.01 0.01 0.02 0.02 0.01 0.01 0.02 0.03 0.04 0.07 0.08 0.06 0.05 0.02 0.01 0.00 0.01 0.03 0.04 0.05 0.04 0.04 0.04 0.03 0.02
0.00 0.00 0.01 0.01 0.01 0.01 0.01 0.01 0.01 0.01 0.01 0.01 0.01 0.01 0.01 0.01 0.01 0.02 0.02 0.02 0.01 0.02 0.02 0.01 0.02 0.03 0.05 0.06 0.07 0.06 0.07 0.05 0.01 0.01 0.02 0.03 0.03 0.05 0.04 0.04 0.04 0.04 0.03
0.01 0.01 0.01 0.01 0.01 0.01 0.02 0.02 0.02 0.01 0.02 0.02 0.01 0.01 0.01 0.02 0.02 0.02 0.02 0.02 0.01 0.01 0.02 0.01 0.02 0.03 0.05 0.07 0.10 0.10 0.09 0.05 0.02 0.01 0.02 0.01 0.03 0.04 0.03 0.04 0.04 0.04 0.03
0.01 0.01 0.01 0.01 0.01 0.02 0.03 0.03 0.03 0.02 0.02 0.02 0.01 0.03 0.02 0.01 0.02 0.02 0.02 0.02 0.01 0.01 0.01 0.01 0.03 0.03 0.04 0.06 0.10 0.11 0.06 0.02 0.01 0.01 0.01 0.02 0.03 0.04 0.03 0.04 0.05 0.06 0.05
0.02 0.03 0.02 0.01 0.01 0.01 0.02 0.03 0.03 0.02 0.01 0.01 0.01 0.01 0.01 0.01 0.01 0.01 0.01 0.03 0.02 0.02 0.01 0.02 0.03 0.03 0.02 0.03 0.05 0.05 0.03 0.03 0.01 0.00 0.01 0.02 0.03 0.04 0.04 0.05 0.04 0.06 0.05
0.02 0.01 0.01 0.01 0.01 0.01 0.01 0.02 0.02 0.02 0.01 0.00 0.00 0.00 0.00 0.00 0.00 0.00 0.01 0.02 0.02 0.01 0.01 0.01 0.01 0.01 0.01 0.01 0.02 0.03 0.03 0.04 0.01 0.00 0.01 0.03 0.04 0.05 0.04 0.03 0.03 0.04 0.02
0.02 0.01 0.01 0.00 0.01 0.01 0.01 0.02 0.02 0.02 0.02 0.01 0.00 0.01 0.01 0.01 0.01 0.01 0.01 0.00 0.00 0.01 0.00 0.00 0.00 0.01 0.01 0.02 0.02 0.02 0.02 0.02 0.02 0.00 0.01 0.03 0.03 0.04 0.04 0.03 0.03 0.03 0.01
0.03 0.03 0.02 0.01 0.01 0.01 0.01 0.02 0.02 0.02 0.02 0.01 0.01 0.01 0.01 0.01 0.01 0.01 0.01 0.00 0.01 0.01 0.01 0.01 0.01 0.01 0.01 0.02 0.02 0.01 0.02 0.01 0.01 0.01 0.01 0.02 0.03 0.04 0.04 0.04 0.04 0.04 0.03
0.04 0.04 0.03 0.03 0.03 0.02 0.02 0.02 0.02 0.02 0.01 0.01 0.01 0.01 0.01 0.01 0.02 0.02 0.01 0.01 0.01 0.01 0.01 0.01 0.02 0.02 0.02 0.02 0.01 0.01 0.01 0.01 0.01 0.01 0.01 0.02 0.03 0.04 0.06 0.05 0.06 0.05 0.03
0.05 0.06 0.04 0.05 0.06 0.05 0.04 0.05 0.04 0.05 0.04 0.02 0.02 0.02 0.02 0.02 0.02 0.02 0.01 0.01 0.01 0.02 0.01 0.01 0.02 0.02 0.02 0.02 0.02 0.01 0.01 0.01 0.00 0.01 0.00 0.01 0.02 0.03 0.04 0.05 0.06 0.06 0.06
0.07 0.09 0.09 0.07 0.08 0.09 0.08 0.08 0.09 0.08 0.06 0.05 0.04 0.04 0.03 0.02 0.02 0.02 0.02 0.01 0.02 0.03 0.03 0.02 0.02 0.02 0.02 0.02 0.02 0.03 0.02 0.01 0.01 0.00 0.00 0.00 0.00 0.01 0.02 0.03 0.05 0.05 0.06
0.07 0.09 0.09 0.09 0.11 0.14 0.15 0.13 0.15 0.13 0.09 0.07 0.06 0.04 0.03 0.02 0.03 0.03 0.02 0.02 0.02 0.02 0.02 0.02 0.02 0.02 0.02 0.02 0.02 0.04 0.03 0.02 0.02 0.01 0.00 0.00 0.01 0.01 0.01 0.02 0.04 0.04 0.05
0.06 0.08 0.09 0.11 0.14 0.17 0.22 0.20 0.21 0.20 0.13 0.09 0.07 0.04 0.03 0.03 0.03 0.04 0.03 0.02 0.02 0.02 0.02 0.02 0.02 0.02 0.02 0.02 0.02 0.03 0.03 0.02 0.02 0.03 0.02 0.01 0.01 0.01 0.00 0.01 0.02 0.03 0.04
0.06 0.07 0.07 0.09 0.12 0.16 0.20 0.21 0.17 0.15 0.11 0.10 0.08 0.06 0.05 0.05 0.06 0.05 0.03 0.03 0.03 0.03 0.02 0.02 0.02 0.02 0.02 0.02 0.03 0.04 0.03 0.03 0.03 0.03 0.02 0.02 0.01 0.01 0.01 0.01 0.01 0.01 0.02
0.06 0.06 0.06 0.08 0.10 0.14 0.16 0.16 0.14 0.13 0.10 0.08 0.09 0.07 0.07 0.08 0.08 0.06 0.05 0.04 0.03 0.03 0.03 0.02 0.02 0.02 0.03 0.02 0.02 0.03 0.02 0.02 0.01 0.01 0.01 0.02 0.02 0.02 0.02 0.02 0.01 0.01 0.01
0.05 0.05 0.06 0.07 0.09 0.14 0.16 0.14 0.16 0.15 0.10 0.08 0.08 0.07 0.07 0.09 0.09 0.07 0.06 0.06 0.03 0.03 0.02 0.02 0.02 0.01 0.02 0.02 0.01 0.01 0.01 0.00 0.00 0.00 0.00 0.01 0.01 0.02 0.03 0.03 0.02 0.02 0.01
0.08 0.08 0.07 0.07 0.09 0.14 0.15 0.13 0.11 0.10 0.06 0.06 0.07 0.08 0.09 0.08 0.08 0.07 0.08 0.06 0.04 0.03 0.02 0.03 0.03 0.02 0.02 0.01 0.01 0.01 0.01 0.00 0.00 0.00 0.00 0.00 0.00 0.01 0.02 0.02 0.02 0.02 0.01
0.08 0.08 0.06 0.07 0.08 0.09 0.10 0.12 0.10 0.09 0.06 0.06 0.07 0.08 0.08 0.08 0.07 0.08 0.08 0.07 0.05 0.03 0.04 0.04 0.02 0.02 0.01 0.01 0.01 0.01 0.01 0.01 0.01 0.00 0.00 0.00 0.00 0.01 0.01 0.01 0.01 0.02 0.02
0.10 0.09 0.05 0.06 0.07 0.06 0.07 0.10 0.10 0.11 0.10 0.08 0.06 0.06 0.07 0.08 0.08 0.10 0.10 0.08 0.05 0.04 0.03 0.04 0.04 0.03 0.02 0.01 0.01 0.01 0.02 0.02 0.01 0.00 0.00 0.00 0.00 0.00 0.00 0.00 0.01 0.01 0.02
MSLP
1013.06 1012.79 1012.69 1012.77 1012.96 1013.21 1013.44 1013.61 1013.68 1013.67 1013.62 1013.57 1013.59 1013.69 1013.89 1014.14 1014.42 1014.69 1014.90 1015.04 1015.12 1015.16 1015.20 1015.27 1015.38 1015.54 1015.74 1015.94 1016.12 1016.27 1016.37 1016.43 1016.48 1016.53 1016.63 1016.78 1016.98 1017.21 1017.46 1017.71 1017.94 1018.13 1018.30
1012.80 1012.62 1012.61 1012.78 1013.06 1013.38 1013.67 1013.87 1013.96 1013.96 1013.91 1013.88 1013.90 1014.02 1014.22 1014.50 1014.79 1015.06 1015.27 1015.40 1015.47 1015.50 1015.53 1015.59 1015.70 1015.87 1016.08 1016.29 1016.49 1016.66 1016.78 1016.86 1016.93 1017.01 1017.12 1017.27 1017.47 1017.69 1017.93 1018.16 1018.37 1018.56 1018.73
1012.52 1012.42 1012.51 1012.76 1013.12 1013.52 1013.87 1014.12 1014.25 1014.29 1014.26 1014.25 1014.28 1014.40 1014.60 1014.85 1015.12 1015.36 1015.54 1015.64 1015.69 1015.71 1015.74 1015.81 1015.93 1016.12 1016.36 1016.60 1016.84 1017.04 1017.20 1017.33 1017.44 1017.55 1017.68 1017.83 1018.02 1018.22 1018.42 1018.62 1018.81 1018.98 1019.14
1012.30 1012.29 1012.45 1012.78 1013.21 1013.67 1014.08 1014.38 1014.56 1014.64 1014.65 1014.65 1014.69 1014.79 1014.97 1015.18 1015.40 1015.59 1015.72 1015.79 1015.81 1015.83 1015.87 1015.96 1016.12 1016.35 1016.62 1016.90 1017.18 1017.42 1017.63 1017.81 1017.96 1018.11 1018.26 1018.42 1018.58 1018.74 1018.91 1019.06 1019.21 1019.36 1019.52
1012.22 1012.27 1012.50 1012.89 1013.36 1013.86 1014.31 1014.65 1014.87 1014.98 1015.02 1015.03 1015.08 1015.17 1015.31 1015.47 1015.63 1015.76 1015.84 1015.88 1015.90 1015.93 1016.00 1016.13 1016.33 1016.59 1016.90 1017.22 1017.52 1017.80 1018.05 1018.27 1018.46 1018.64 1018.81 1018.96 1019.11 1019.24 1019.35 1019.45 1019.56 1019.68 1019.84
1012.30 1012.42 1012.68 1013.10 1013.59 1014.10 1014.55 1014.91 1015.14 1015.27 1015.34 1015.37 1015.42 1015.50 1015.61 1015.73 1015.84 1015.92 1015.97 1015.99 1016.02 1016.08 1016.19 1016.37 1016.61 1016.91 1017.25 1017.58 1017.90 1018.19 1018.46 1018.70 1018.91 1019.11 1019.29 1019.45 1019.57 1019.66 1019.73 1019.79 1019.86 1019.96 1020.10
1012.56 1012.71 1013.00 1013.41 1013.89 1014.37 1014.80 1015.13 1015.37 1015.51 1015.59 1015.65 1015.71 1015.79 1015.89 1015.98 1016.06 1016.12 1016.16 1016.19 1016.24 1016.34 1016.49 1016.72 1017.00 1017.33 1017.67 1018.00 1018.31 1018.59 1018.84 1019.08 1019.30 1019.51 1019.70 1019.85 1019.96 1020.03 1020.06 1020.09 1020.12 1020.20 1020.34
1012.95 1013.12 1013.41 1013.79 1014.23 1014.65 1015.03 1015.32 1015.53 1015.66 1015.76 1015.85 1015.94 1016.05 1016.17 1016.27 1016.35 1016.41 1016.45 1016.50 1016.58 1016.72 1016.92 1017.18 1017.49 1017.82 1018.15 1018.45 1018.73 1018.97 1019.20 1019.41 1019.62 1019.83 1020.02 1020.18 1020.29 1020.35 1020.37 1020.37 1020.39 1020.45 1020.59
1013.39 1013.58 1013.86 1014.21 1014.59 1014.94 1015.24 1015.47 1015.64 1015.77 1015.88 1016.01 1016.16 1016.32 1016.47 1016.61 1016.72 1016.80 1016.86 1016.93 1017.03 1017.19 1017.42 1017.70 1018.02 1018.34 1018.64 1018.90 1019.13 1019.32 1019.51 1019.70 1019.89 1020.10 1020.30 1020.46 1020.58 1020.65 1020.67 1020.67 1020.68 1020.73 1020.86
1013.81 1014.03 1014.32 1014.64 1014.95 1015.22 1015.43 1015.60 1015.72 1015.84 1015.98 1016.16 1016.37 1016.60 1016.82 1017.01 1017.16 1017.26 1017.34 1017.42 1017.53 1017.70 1017.93 1018.21 1018.51 1018.81 1019.07 1019.30 1019.48 1019.63 1019.78 1019.94 1020.13 1020.33 1020.54 1020.73 1020.87 1020.96 1020.99 1021.00 1021.01 1021.06 1021.18
1014.16 1014.43 1014.73 1015.03 1015.29 1015.49 1015.63 1015.73 1015.81 1015.93 1016.09 1016.32 1016.60 1016.91 1017.20 1017.44 1017.63 1017.76 1017.84 1017.92 1018.02 1018.17 1018.37 1018.63 1018.91 1019.17 1019.41 1019.61 1019.76 1019.89 1020.01 1020.16 1020.35 1020.56 1020.78 1020.99 1021.16 1021.28 1021.34 1021.37 1021.39 1021.44 1021.54
1014.39 1014.73 1015.08 1015.37 1015.60 1015.75 1015.83 1015.87 1015.93 1016.03 1016.22 1016.50 1016.85 1017.22 1017.58 1017.88 1018.10 1018.24 1018.31 1018.37 1018.44 1018.55 1018.72 1018.93 1019.18 1019.43 1019.65 1019.83 1019.97 1020.10 1020.23 1020.38 1020.56 1020.78 1021.02 1021.25 1021.45 1021.60 1021.70 1021.75 1021.78 1021.83 1021.92
1014.50 1014.93 1015.33 1015.65 1015.87 1015.98 1016.02 1016.03 1016.06 1016.17 1016.38 1016.70 1017.09 1017.52 1017.93 1018.27 1018.51 1018.66 1018.72 1018.74 1018.77 1018.83 1018.95 1019.13 1019.35 1019.58 1019.80 1019.99 1020.15 1020.29 1020.44 1020.60 1020.79 1021.02 1021.27 1021.51 1021.73 1021.90 1022.02 1022.10 1022.16 1022.22 1022.30
1014.50 1015.02 1015.48 1015.83 1016.06 1016.17 1016.19 1016.18 1016.20 1016.31 1016.53 1016.88 1017.31 1017.77 1018.21 1018.58 1018.84 1018.98 1019.03 1019.03 1019.01 1019.03 1019.11 1019.26 1019.45 1019.68 1019.91 1020.13 1020.32 1020.50 1020.66 1020.84 1021.04 1021.26 1021.50 1021.74 1021.96 1022.15 1022.29 1022.40 1022.47 1022.55 1022.63
1014.40 1014.99 1015.51 1015.90 1016.15 1016.27 1016.30 1016.29 1016.32 1016.43 1016.67 1017.02 1017.47 1017.95 1018.41 1018.79 1019.06 1019.21 1019.25 1019.24 1019.20 1019.20 1019.25 1019.38 1019.56 1019.80 1020.05 1020.30 1020.53 1020.74 1020.93 1021.11 1021.31 1021.51 1021.72 1021.93 1022.13 1022.32 1022.47 1022.60 1022.70 1022.80 1022.89
1014.23 1014.86 1015.41 1015.83 1016.11 1016.26 1016.32 1016.35 1016.40 1016.53 1016.77 1017.12 1017.56 1018.04 1018.49 1018.88 1019.17 1019.33 1019.39 1019.39 1019.37 1019.36 1019.41 1019.54 1019.73 1019.98 1020.25 1020.53 1020.79 1021.02 1021.23 1021.41 1021.58 1021.74 1021.91 1022.07 1022.24 1022.40 1022.55 1022.69 1022.83 1022.95 1023.07
1014.01 1014.63 1015.18 1015.62 1015.94 1016.13 1016.25 1016.33 1016.42 1016.58 1016.83 1017.18 1017.60 1018.06 1018.50 1018.88 1019.18 1019.37 1019.47 1019.51 1019.52 1019.55 1019.62 1019.76 1019.96 1020.22 1020.52 1020.82 1021.10 1021.34 1021.55 1021.72 1021.85 1021.96 1022.06 1022.17 1022.28 1022.41 1022.55 1022.70 1022.86 1023.01 1023.17
1013.75 1014.33 1014.85 1015.29 1015.63 1015.89 1016.08 1016.24 1016.40 1016.61 1016.88 1017.22 1017.61 1018.03 1018.45 1018.82 1019.12 1019.35 1019.50 1019.59 1019.66 1019.74 1019.85 1020.02 1020.24 1020.51 1020.82 1021.12 1021.41 1021.66 1021.86 1022.00 1022.10 1022.15 1022.19 1022.23 1022.29 1022.37 1022.49 1022.64 1022.81 1023.00 1023.19
1013.49 1013.98 1014.44 1014.86 1015.24 1015.56 1015.85 1016.11 1016.37 1016.64 1016.93 1017.26 1017.63 1018.00 1018.37 1018.72 1019.02 1019.27 1019.47 1019.63 1019.76 1019.90 1020.06 1020.26 1020.50 1020.78 1021.09 1021.40 1021.69 1021.93 1022.12 1022.25 1022.31 1022.32 1022.30 1022.28 1022.28 1022.31 1022.40 1022.54 1022.72 1022.93 1023.15
1013.25 1013.62 1014.01 1014.41 1014.81 1015.21 1015.60 1015.98 1016.34 1016.69 1017.02 1017.34 1017.67 1017.98 1018.30 1018.60 1018.89 1019.15 1019.39 1019.60 1019.80 1020.00 1020.21 1020.44 1020.69 1020.97 1021.28 1021.58 1021.87 1022.12 1022.31 1022.42 1022.47 1022.45 1022.40 1022.33 1022.28 1022.27 1022.32 1022.43 1022.60 1022.81 1023.04
1013.05 1013.32 1013.62 1013.99 1014.41 1014.88 1015.38 1015.88 1016.35 1016.77 1017.15 1017.47 1017.75 1018.00 1018.24 1018.49 1018.74 1018.99 1019.25 1019.51 1019.76 1020.01 1020.25 1020.50 1020.76 1021.05 1021.34 1021.65 1021.94 1022.19 1022.39 1022.52 1022.57 1022.56 1022.48 1022.39 1022.30 1022.25 1022.25 1022.33 1022.46 1022.65 1022.86
1012.95 1013.11 1013.33 1013.66 1014.10 1014.63 1015.22 1015.83 1016.40 1016.90 1017.31 1017.62 1017.86 1018.04 1018.21 1018.39 1018.59 1018.82 1019.08 1019.35 1019.64 1019.91 1020.18 1020.44 1020.71 1020.99 1021.28 1021.58 1021.88 1022.15 1022.38 1022.54 1022.62 1022.62 1022.56 1022.45 1022.34 1022.25 1022.21 1022.23 1022.31 1022.45 1022.62
1012.95 1013.03 1013.19 1013.48 1013.92 1014.49 1015.14 1015.83 1016.47 1017.03 1017.47 1017.77 1017.97 1018.09 1018.19 1018.29 1018.44 1018.64 1018.88 1019.16 1019.46 1019.75 1020.03 1020.30 1020.56 1020.82 1021.11 1021.41 1021.71 1022.01 1022.27 1022.47 1022.60 1022.64 1022.60 1022.50 1022.38 1022.26 1022.17 1022.13 1022.15 1022.22 1022.33
1013.09 1013.11 1013.22 1013.47 1013.89 1014.46 1015.14 1015.86 1016.55 1017.14 1017.59 1017.89 1018.05 1018.13 1018.16 1018.21 1018.31 1018.47 1018.70 1018.98 1019.27 1019.57 1019.85 1020.11 1020.36 1020.61 1020.88 1021.17 1021.49 1021.80 1022.10 1022.34 1022.51 1022.60 1022.59 1022.51 1022.39 1022.25 1022.12 1022.02 1021.98 1021.98 1022.01
1013.32 1013.33 1013.40 1013.60 1013.97 1014.52 1015.18 1015.90 1016.60 1017.19 1017.64 1017.93 1018.07 1018.12 1018.12 1018.13 1018.20 1018.34 1018.56 1018.83 1019.12 1019.41 1019.68 1019.93 1020.16 1020.40 1020.65 1020.93 1021.24 1021.56 1021.87 1022.15 1022.36 1022.49 1022.52 1022.46 1022.35 1022.20 1022.04 1021.91 1021.80 1021.73 1021.69
1013.63 1013.63 1013.68 1013.83 1014.15 1014.63 1015.25 1015.92 1016.59 1017.17 1017.60 1017.88 1018.01 1018.05 1018.05 1018.06 1018.12 1018.26 1018.47 1018.74 1019.03 1019.32 1019.58 1019.81 1020.02 1020.23 1020.45 1020.71 1021.00 1021.31 1021.62 1021.91 1022.15 1022.30 1022.36 1022.33 1022.24 1022.10 1021.94 1021.78 1021.64 1021.53 1021.43
Thickness
5769 5771 5769 5768 5767 5767 5766 5766 5766 5766 5766 5766 5765 5764 5764 5763 5762 5762 5761 5760 5760 5759 5758 5758 5757 5755 5754 5753 5752 5751 5749 5748 5747 5746 5745 5743 5742 5741 5739 5738 5737 5735 5734
5775 5772 5769 5767 5766 5765 5764 5764 5763 5763 5763 5763 5762 5762 5761 5761 5760 5760 5759 5758 5758 5757 5756 5755 5753 5753 5752 5751 5749 5748 5747 5746 5745 5744 5742 5741 5740 5738 5737 5736 5735 5733 5732
5775 5772 5769 5767 5765 5764 5763 5762 5762 5761 5761 5760 5760 5759 5759 5759 5758 5758 5757 5756 5755 5754 5753 5752 5751 5750 5749 5748 5747 5745 5744 5743 5742 5741 5740 5738 5737 5736 5735 5734 5732 5731 5730
5775 5771 5768 5766 5764 5762 5761 5760 5760 5759 5759 5758 5758 5757 5757 5756 5756 5755 5755 5754 5753 5752 5750 5749 5748 5747 5746 5745 5744 5743 5742 5741 5740 5738 5737 5736 5735 5734 5732 5731 5730 5728 5727
5774 5770 5767 5764 5762 5761 5759 5758 5758 5757 5756 5756 5755 5755 5754 5754 5753 5753 5752 5751 5750 5749 5748 5746 5745 5745 5744 5742 5741 5740 5739 5738 5737 5736 5735 5734 5733 5731 5730 5728 5727 5726 5725
5772 5768 5766 5763 5761 5759 5758 5756 5756 5755 5754 5754 5753 5752 5752 5752 5751 5750 5749 5748 5747 5746 5745 5744 5743 5742 5741 5740 5739 5737 5736 5735 5734 5733 5732 5731 5730 5729 5728 5726 5725 5723 5722
5771 5768 5765 5762 5759 5758 5756 5754 5753 5753 5752 5751 5751 5750 5750 5749 5748 5748 5747 5746 5744 5743 5742 5741 5740 5739 5739 5738 5736 5735 5734 5733 5731 5730 5729 5729 5728 5727 5725 5724 5723 5722 5721
5771 5767 5764 5761 5758 5756 5754 5753 5751 5751 5750 5749 5749 5748 5748 5747 5746 5745 5744 5743 5742 5741 5740 5739 5738 5737 5737 5736 5734 5733 5732 5731 5729 5728 5727 5726 5725 5724 5723 5722 5721 5720 5719
5769 5766 5763 5760 5757 5755 5753 5751 5749 5748 5748 5747 5747 5746 5745 5744 5744 5743 5742 5741 5740 5739 5738 5737 5736 5735 5735 5734 5732 5731 5730 5728 5727 5726 5725 5724 5723 5722 5721 5720 5719 5718 5717
5767 5764 5761 5758 5756 5753 5751 5749 5747 5746 5745 5745 5744 5744 5743 5742 5742 5740 5739 5738 5737 5737 5736 5735 5734 5733 5733 5732 5731 5729 5728 5726 5725 5724 5723 5722 5721 5721 5719 5718 5717 5716 5715
5765 5763 5760 5757 5754 5751 5749 5747 5745 5744 5743 5743 5742 5741 5741 5740 5739 5738 5737 5737 5736 5735 5734 5733 5732 5732 5731 5730 5729 5728 5726 5724 5723 5722 5721 5720 5720 5719 5718 5717 5716 5715 5714
5763 5761 5760 5757 5753 5750 5748 5745 5744 5742 5741 5741 5740 5739 5738 5738 5737 5736 5736 5735 5734 5733 5732 5731 5730 5730 5729 5728 5727 5726 5725 5723 5722 5721 5720 5719 5718 5718 5717 5716 5715 5713 5712
5766 5763 5759 5756 5753 5749 5746 5744 5742 5741 5740 5739 5738 5737 5736 5736 5735 5734 5734 5733 5733 5732 5731 5730 5729 5728 5727 5727 5726 5724 5723 5722 5721 5720 5719 5718 5717 5716 5715 5714 5713 5712 5711
5767 5763 5760 5756 5752 5749 5745 5743 5741 5740 5738 5737 5737 5736 5735 5734 5733 5733 5732 5732 5731 5730 5730 5728 5728 5727 5726 5725 5724 5723 5722 5721 5720 5719 5718 5717 5716 5715 5714 5713 5712 5711 5709
5767 5763 5760 5756 5752 5748 5745 5742 5740 5738 5737 5736 5735 5735 5734 5733 5732 5731 5731 5730 5730 5729 5729 5728 5727 5726 5726 5724 5723 5722 5722 5720 5719 5718 5717 5716 5715 5714 5713 5712 5711 5710 5708
5768 5763 5760 5756 5752 5748 5745 5742 5739 5738 5736 5735 5734 5734 5733 5732 5731 5730 5729 5729 5729 5729 5728 5727 5727 5726 5725 5724 5723 5722 5721 5719 5718 5717 5716 5715 5714 5713 5712 5711 5710 5709 5708
5770 5765 5760 5757 5753 5748 5745 5742 5739 5737 5735 5734 5733 5732 5732 5732 5731 5730 5729 5729 5729 5729 5728 5727 5726 5725 5725 5724 5722 5721 5720 5719 5718 5716 5715 5714 5714 5713 5712 5711 5710 5709 5708
5771 5766 5762 5758 5753 5748 5745 5742 5738 5736 5735 5733 5733 5732 5731 5731 5731 5730 5729 5729 5729 5728 5728 5727 5725 5724 5723 5723 5721 5721 5720 5719 5717 5716 5715 5714 5713 5713 5712 5711 5710 5709 5708
5774 5768 5762 5758 5754 5749 5746 5742 5739 5737 5734 5733 5733 5732 5731 5731 5731 5730 5729 5729 5729 5728 5727 5727 5725 5724 5722 5722 5721 5720 5719 5718 5717 5717 5715 5714 5713 5713 5712 5711 5710 5709 5708
5774 5770 5764 5759 5754 5749 5745 5741 5738 5736 5734 5733 5732 5732 5732 5731 5731 5730 5730 5729 5729 5728 5727 5726 5725 5724 5722 5721 5721 5719 5718 5718 5718 5717 5716 5715 5715 5714 5713 5712 5711 5710 5709
5773 5768 5765 5760 5755 5750 5745 5740 5737 5735 5734 5733 5733 5733 5732 5732 5731 5731 5731 5730 5729 5728 5728 5726 5725 5723 5721 5720 5718 5715 5717 5718 5718 5718 5718 5717 5716 5715 5714 5713 5712 5711 5710
5773 5770 5765 5761 5757 5753 5749 5745 5741 5738 5735 5734 5733 5733 5732 5732 5731 5731 5731 5730 5730 5728 5727 5726 5725 5722 5721 5720 5717 5712 5710 5712 5717 5720 5719 5719 5718 5717 5716 5715 5714 5713 5712
5773 5770 5767 5763 5758 5754 5750 5744 5740 5736 5734 5732 5731 5732 5732 5732 5732 5732 5732 5731 5730 5729 5728 5727 5726 5724 5720 5719 5719 5715 5709 5706 5711 5717 5719 5720 5719 5719 5718 5717 5716 5715 5714
5775 5772 5768 5763 5759 5754 5749 5745 5740 5736 5733 5734 5733 5733 5733 5733 5733 5733 5733 5732 5731 5730 5729 5728 5727 5726 5723 5719 5718 5718 5717 5716 5710 5710 5715 5718 5720 5720 5720 5719 5718 5717 5716
5775 5771 5767 5763 5758 5754 5750 5746 5741 5738 5736 5735 5734 5733 5732 5733 5733 5733 5732 5731 5730 5730 5729 5728 5727 5726 5725 5722 5719 5718 5716 5714 5714 5710 5709 5713 5717 5720 5720 5720 5719 5718 5718
5774 5770 5765 5761 5757 5754 5750 5746 5742 5739 5736 5734 5732 5732 5731 5731 5732 5732 5731 5731 5730 5730 5729 5728 5727 5726 5725 5724 5722 5720 5718 5715 5713 5711 5709 5710 5712 5717 5720 5720 5720 5719 5719